Regional Weather Roundup
Issued by NWS Newport/Morehead, NC

Current Version | Previous Version | Text Only | Print | Product List | Glossary Off
Versions: 1 2 3 4 5 6 7 8 9 10 11 12 13 14 15 16 17 18 19 20 21 22 23 24 25 26 27 28 29 30 31 32 33 34 35 36 37 38 39 40 41 42 43 44 45 46 47 48 49 50
587 ASUS42 KMHX 270513 RWRMHX WEATHER ROUNDUP FOR EASTERN NORTH CAROLINA NATIONAL WEATHER SERVICE NEWPORT/MOREHEAD CITY NC 100 AM EDT TUE SEP 27 2016 NOTE: "FAIR" INDICATES FEW OR NO CLOUDS BELOW 12,000 FEET WITH NO SIGNIFICANT WEATHER AND/OR OBSTRUCTIONS TO VISIBILITY NCZ015>017-031-032-045>047-102-103-270600- NORTH COAST CITY SKY/WX TMP DP RH WIND PRES REMARKS EDENTON CLOUDY 74 70 87 SW5 30.03F ELIZABETH CITY MOCLDY 72 66 81 S5 30.02F KITTY HAWK CLOUDY 75 71 85 S6 30.01F MANTEO CLOUDY 76 67 74 S16 30.03F $$ NCZ045>047-081-094-103-104-270600- CENTRAL COAST CITY SKY/WX TMP DP RH WIND PRES REMARKS FRISCO CLEAR 78 65 63 S14 30.03F $$ NCZ095-097-098-100-101-270600- SOUTHERN COAST CITY SKY/WX TMP DP RH WIND PRES REMARKS BEAUFORT CLEAR 71 66 84 SE3 30.02F CEDAR ISLAND NOT AVBL JACKSONVILLE CLOUDY 70 67 90 CALM 30.01F PINEY ISLAND NOT AVBL WILMINGTON CLOUDY 71 68 90 NE3 30.01F $$ NCZ011>013-027>030-043-044-078>080-089-090>093-098-270600- COASTAL PLAIN CITY SKY/WX TMP DP RH WIND PRES REMARKS AHOSKIE PTCLDY 68 66 93 S5 30.01F CLINTON PTCLDY 70 68 95 CALM 30.03F ELIZABETHTOWN CLOUDY 70 69 96 CALM 30.03F GOLDSBORO PTCLDY 70 70 100 SE2 30.00F GREENVILLE MOCLDY 70 68 94 CALM 30.04F HAVELOCK CLEAR 72 65 78 SE7 30.03F KENANSVILLE MOCLDY 66 66 100 CALM 30.03F FOG KINSTON PTCLDY 68 66 95 CALM 30.04S NEW BERN CLEAR 68 66 93 CALM 30.04F RICHLANDS CLOUDY 67 67 100 CALM 30.03F ROCKY MOUNT CLOUDY 70 67 90 S5 30.02F WASHINGTON PTCLDY 68 66 96 CALM 30.03F WHITEVILLE NOT AVBL $$ AMZ130-135-150-152-154-156-158-170-250-252-270-ANZ085-086-088-633-658-670-270600- MARINE OBSERVATIONS STATION/POSITION TIME TEMP WIND PRES WAVE SWELL AIR SEA DIR/SP/G HT/PER HT/PER (UTC) (F) (DEG/KT/KT) (MB) (FT/S) (FT/S) CHESAPEAKE LIGHT NOT AVBL 64 E VA BEACH 0450 75 74 170/ 12/ 16 1016.4 3/ 5 2/ 8 DUCK 0448 76 76 170/ 8/ 10 1016.0 2 E DUCK 0441 76 N/A 3/ 8 2/13 OREGON INLET 0442 76 76 160/ 9/ 11 1016.7 13E OREGON INLT 0400 76 N/A 3/10 3/10 HATTERAS CG 0442 78 78 150/ 15/ 19 1016.3 DIAMOND BUOY 0450 79 85 160/ 16/ 19 1016.7 4/ 7 2/ 9 CAPE LOOKOUT 0500 79 160/ 11/ 12 1016.4 BEAUFORT LAB 0442 77 77 170/ 4/ 6 1016.0 30 SE NEW RVR IN 0408 80 82 130/ 10/ 16 1016.6 30 SE NEW RVR IN 0455 82 N/A 3/ 8 27 SE WRIGHTSVLE 0408 80 81 140/ 10/ 14 1016.7 5 SE WRIGHTSVLE 0408 80 81 150/ 10/ 14 1017.7 225 S CAPE HAT 0450 81 83 110/ 17/ 19 1015.5 5/ 7 3/ 8 41 SE CHARLESTON 0450 80 82 110/ 10/ 12 1014.4 3/ 5 3/ 5 $$

USA.gov is the U.S. government's official web portal to all federal, state and local government web resources and services.